Temp
54 53 52 52 52 50 49 49 49 48 49 49 49 50 50 49 48 47 47 48 50 50 50 51 51 50 49 49 50 50 51 51 50 49 49 52 54 54 55 55 56 55 56
54 52 51 51 50 48 49 50 49 48 48 48 49 49 49 49 48 47 48 49 50 52 50 51 51 53 50 50 49 49 50 50 49 48 47 49 51 53 53 53 54 58 55
53 52 51 50 49 49 49 49 49 48 48 48 48 48 48 49 48 48 49 50 50 49 49 50 51 51 50 50 49 49 49 50 49 47 47 48 50 50 51 51 52 53 55
53 52 51 50 50 49 49 49 48 48 47 47 48 48 48 49 49 49 49 49 49 51 50 51 52 52 51 50 50 50 49 49 48 47 47 48 49 50 50 50 50 50 51
53 52 51 50 50 50 49 48 48 47 47 48 48 48 48 49 53 50 51 49 48 47 49 51 53 55 57 55 52 50 49 48 48 47 47 46 47 47 48 49 49 49 52
52 52 52 51 50 50 49 48 47 47 46 47 48 48 47 49 50 50 51 46 46 46 49 53 53 57 57 57 57 56 53 49 47 46 45 45 45 47 48 49 49 52 51
52 53 54 51 50 50 49 48 47 46 45 45 46 47 47 47 49 49 50 48 46 46 48 51 53 54 54 52 54 55 55 54 53 48 47 47 48 52 48 48 48 52 51
53 53 54 51 50 50 48 47 46 45 45 45 46 47 46 48 49 48 49 49 50 50 50 51 50 50 50 51 51 54 55 54 52 54 53 53 54 53 52 53 53 53 54
54 53 53 52 50 50 48 47 47 44 44 45 46 47 46 46 48 47 47 47 54 53 52 52 51 49 47 48 51 51 50 52 51 50 50 50 49 49 52 55 53 53 52
55 55 53 52 50 49 49 47 46 45 45 46 46 47 48 45 47 46 46 50 48 48 48 49 51 50 46 44 49 49 47 48 53 54 54 53 53 53 53 55 55 52 52
57 55 53 51 51 50 48 46 46 47 45 45 45 45 44 44 46 45 44 49 49 48 47 53 54 48 46 43 46 49 49 49 51 49 49 50 50 51 54 54 54 55 51
54 54 53 51 52 53 48 48 46 45 44 44 44 44 44 45 46 46 44 44 48 48 48 49 52 47 46 45 46 43 46 48 50 49 48 49 49 50 50 54 54 56 57
53 52 52 52 51 50 48 47 46 44 44 44 43 43 43 45 45 46 45 44 47 47 50 50 48 46 44 48 48 46 47 50 50 49 48 48 52 52 54 53 52 55 56
53 53 52 50 50 49 49 48 46 45 44 44 43 43 43 43 44 46 46 45 46 48 47 47 48 47 47 48 49 50 50 50 50 49 49 52 52 52 50 50 50 50 53
54 55 52 51 50 51 50 51 49 48 48 47 45 44 44 43 45 46 45 45 43 42 40 44 46 47 48 48 49 50 50 50 50 50 49 50 50 50 50 50 49 51 48
53 54 53 53 52 51 51 52 46 47 46 44 45 46 45 45 44 40 40 41 41 40 41 45 45 47 48 48 49 50 52 51 50 50 50 51 50 50 50 50 50 49 49
50 52 53 52 54 52 50 50 50 51 44 44 42 43 44 46 43 40 40 42 41 39 43 46 47 47 49 49 51 56 55 53 52 51 52 52 52 51 49 51 52 52 51
47 47 50 52 53 54 55 55 53 51 52 52 44 43 42 43 43 42 39 41 44 41 43 46 47 48 49 49 50 51 54 51 51 51 51 53 53 53 52 51 52 52 52
42 44 46 47 49 50 53 55 56 54 52 52 50 42 42 42 41 40 39 44 46 48 47 48 49 49 49 50 50 51 52 52 52 51 53 52 52 53 53 53 52 47 49
40 43 43 44 45 46 47 47 48 52 54 53 52 53 49 40 41 42 41 44 45 48 51 51 52 52 51 50 50 50 55 55 51 51 51 51 52 52 53 54 57 55 53
38 40 40 41 41 42 43 43 44 45 45 49 54 55 44 49 50 48 47 46 48 49 50 51 53 53 53 53 52 50 55 56 56 52 52 52 51 52 53 55 55 54 54
37 37 36 36 37 38 39 40 41 41 42 44 45 46 41 46 55 52 52 52 51 52 53 53 54 55 55 55 54 53 52 53 53 52 52 55 52 53 54 53 53 52 56
36 35 34 33 34 34 34 36 38 39 40 40 41 43 45 45 48 54 55 54 54 53 54 54 54 55 56 57 57 57 55 54 55 55 53 52 53 53 56 53 53 52 52
35 34 33 33 32 32 32 32 32 34 37 39 41 40 40 43 45 45 50 57 57 55 55 55 55 56 56 56 57 58 58 57 57 57 57 55 53 51 54 54 54 55 54
34 34 33 32 33 33 33 34 34 35 35 36 39 39 41 42 43 44 46 51 56 57 56 56 57 56 57 57 57 58 52 42 54 48 57 56 56 54 54 57 56 56 54
34 34 33 32 34 34 34 33 33 34 34 35 35 36 39 40 41 44 46 45 51 54 57 57 58 58 57 57 57 51 43 42 45 42 54 56 56 55 53 54 55 57 57
MSLP
1017.85 1017.85 1018.02 1017.95 1017.99 1018.00 1017.90 1017.54 1017.35 1017.15 1016.72 1016.44 1016.14 1015.90 1015.61 1015.17 1014.63 1014.38 1013.83 1013.36 1013.20 1012.85 1012.61 1012.65 1012.46 1012.23 1012.52 1012.63 1012.74 1012.84 1012.97 1013.10 1012.98 1012.45 1012.27 1011.82 1011.64 1011.42 1011.25 1011.20 1011.34 1011.45 1011.42
1017.65 1017.79 1017.92 1017.88 1017.91 1017.89 1017.59 1017.24 1017.15 1016.86 1016.63 1016.38 1016.09 1015.70 1015.30 1014.88 1014.28 1014.02 1013.49 1013.07 1012.86 1012.48 1012.34 1012.15 1011.93 1011.85 1011.86 1011.82 1012.00 1012.07 1012.18 1012.19 1012.43 1012.27 1012.04 1011.82 1011.60 1011.23 1011.19 1011.25 1011.21 1011.07 1011.23
1017.53 1017.59 1017.63 1017.69 1017.62 1017.53 1017.30 1017.13 1016.97 1016.89 1016.62 1016.19 1015.82 1015.42 1015.04 1014.51 1013.93 1013.44 1013.32 1012.90 1012.53 1012.26 1012.10 1011.88 1011.52 1011.29 1011.21 1011.19 1011.21 1011.28 1011.42 1011.53 1011.71 1011.94 1011.79 1011.52 1011.34 1011.11 1011.08 1011.07 1011.06 1011.06 1010.96
1017.43 1017.50 1017.57 1017.45 1017.29 1017.25 1017.14 1017.09 1017.00 1016.85 1016.55 1016.02 1015.45 1015.15 1014.65 1014.08 1013.53 1012.77 1012.88 1012.77 1012.50 1012.05 1011.66 1011.24 1010.84 1010.68 1010.51 1010.38 1010.46 1010.55 1010.80 1011.05 1011.32 1011.53 1011.59 1011.56 1011.35 1011.02 1011.14 1011.18 1011.18 1011.05 1010.93
1017.34 1017.15 1017.16 1016.96 1016.90 1016.96 1017.03 1016.98 1016.86 1016.66 1016.26 1015.76 1015.26 1014.79 1014.40 1013.90 1013.25 1012.92 1012.55 1012.19 1011.90 1011.56 1011.08 1010.63 1010.07 1009.63 1009.53 1009.59 1009.81 1009.98 1010.28 1010.59 1010.91 1011.18 1011.34 1011.29 1011.13 1011.07 1010.99 1010.81 1010.99 1010.91 1010.75
1016.97 1016.80 1016.56 1016.59 1016.69 1016.73 1016.81 1016.76 1016.58 1016.23 1015.91 1015.49 1014.97 1014.66 1014.24 1013.62 1013.06 1012.62 1012.39 1012.16 1011.73 1011.35 1010.74 1010.17 1009.71 1009.17 1009.15 1009.13 1009.23 1009.39 1009.62 1010.06 1010.43 1010.77 1010.84 1010.81 1010.56 1010.49 1010.38 1010.41 1010.58 1010.74 1010.80
1016.60 1016.38 1016.16 1016.31 1016.54 1016.51 1016.46 1016.44 1016.22 1015.93 1015.61 1015.28 1014.81 1014.35 1014.00 1013.39 1012.71 1012.33 1012.02 1011.73 1011.43 1011.00 1010.48 1010.25 1009.90 1009.62 1009.53 1009.53 1009.49 1009.53 1009.53 1009.53 1009.56 1009.85 1010.12 1010.08 1009.96 1009.73 1009.79 1010.04 1010.16 1010.22 1010.43
1016.16 1016.05 1015.85 1015.92 1016.13 1016.11 1016.16 1016.08 1015.75 1015.50 1015.30 1015.00 1014.49 1014.04 1013.63 1013.06 1012.52 1012.01 1011.55 1011.29 1010.87 1010.45 1010.19 1010.07 1010.07 1010.02 1009.96 1009.80 1009.72 1009.49 1009.39 1009.40 1009.19 1009.48 1009.52 1009.46 1009.37 1009.29 1009.42 1009.29 1009.50 1009.94 1010.31
1015.69 1015.47 1015.33 1015.31 1015.53 1015.66 1015.71 1015.52 1015.16 1015.09 1014.82 1014.48 1014.03 1013.74 1013.34 1012.73 1012.24 1011.91 1011.59 1011.04 1010.38 1010.16 1009.98 1010.10 1010.23 1010.24 1010.03 1009.89 1009.83 1009.77 1009.78 1009.58 1009.35 1009.27 1009.12 1009.00 1008.92 1008.95 1009.00 1009.15 1009.48 1009.74 1010.13
1014.91 1014.57 1014.46 1014.49 1014.81 1014.96 1014.95 1014.97 1014.64 1014.41 1014.29 1013.98 1013.57 1013.27 1012.98 1012.61 1011.98 1011.70 1011.52 1011.10 1010.52 1010.45 1010.41 1010.34 1010.22 1010.22 1010.19 1010.00 1009.91 1009.98 1009.97 1009.80 1009.52 1009.38 1009.35 1009.23 1009.05 1008.91 1008.91 1009.00 1009.25 1009.68 1010.09
1013.82 1013.78 1013.85 1013.88 1013.95 1013.93 1014.18 1014.22 1014.12 1013.97 1013.85 1013.66 1013.40 1013.00 1012.75 1012.37 1011.96 1011.62 1011.41 1011.18 1010.84 1010.82 1010.62 1010.42 1010.30 1010.28 1010.20 1010.19 1010.12 1010.04 1009.95 1009.77 1009.69 1009.68 1009.59 1009.42 1009.34 1009.30 1009.24 1009.31 1009.49 1009.57 1010.05
1013.22 1013.39 1013.34 1013.17 1013.22 1013.23 1013.63 1013.47 1013.51 1013.53 1013.42 1013.27 1013.10 1012.70 1012.47 1011.97 1011.75 1011.60 1011.39 1011.27 1010.93 1010.86 1010.69 1010.43 1010.22 1010.17 1010.17 1010.14 1009.99 1009.88 1009.79 1009.75 1009.81 1009.93 1009.84 1009.66 1009.61 1009.70 1009.67 1009.68 1009.79 1009.81 1009.88
1012.70 1012.71 1012.52 1012.46 1012.52 1012.56 1013.01 1012.96 1012.96 1012.74 1012.87 1012.77 1012.82 1012.61 1012.16 1011.80 1011.49 1011.40 1011.27 1010.98 1010.67 1010.83 1010.48 1010.34 1010.15 1010.02 1009.97 1009.82 1009.60 1009.54 1009.66 1009.90 1009.89 1009.91 1009.87 1009.74 1009.66 1009.71 1009.79 1010.00 1010.16 1010.13 1010.44
1011.97 1011.84 1011.68 1011.88 1011.82 1011.92 1012.01 1012.13 1012.12 1011.96 1012.08 1012.13 1012.20 1012.12 1011.72 1011.49 1011.38 1011.11 1011.05 1010.85 1010.73 1010.63 1010.54 1010.40 1010.20 1010.08 1009.98 1009.83 1009.59 1009.49 1009.51 1009.65 1009.67 1009.81 1009.90 1009.82 1009.92 1010.18 1010.31 1010.31 1010.70 1010.88 1011.08
1011.87 1011.59 1011.16 1010.92 1011.00 1011.01 1010.96 1010.78 1010.85 1010.69 1010.56 1010.72 1010.76 1010.98 1011.14 1011.05 1010.53 1010.50 1010.70 1010.87 1010.83 1010.97 1010.94 1010.53 1010.35 1010.14 1009.93 1009.81 1009.60 1009.36 1009.46 1009.51 1009.62 1009.73 1009.93 1010.09 1010.36 1010.63 1010.77 1010.73 1011.04 1011.15 1011.47
1011.94 1011.28 1010.96 1010.90 1010.28 1009.96 1010.02 1009.89 1009.49 1009.38 1009.22 1009.35 1009.36 1009.58 1009.78 1009.74 1009.72 1010.05 1010.44 1010.61 1010.68 1010.81 1010.83 1010.48 1010.26 1010.08 1009.99 1009.81 1009.64 1009.27 1009.14 1009.28 1009.57 1009.68 1009.87 1010.11 1010.43 1010.61 1010.81 1011.03 1011.13 1011.40 1011.69
1012.70 1012.19 1011.24 1010.78 1010.58 1010.37 1010.35 1009.95 1009.12 1008.21 1008.27 1008.20 1008.37 1008.52 1008.73 1008.69 1009.04 1009.30 1009.81 1010.29 1010.65 1010.83 1010.39 1010.07 1009.91 1009.70 1009.50 1009.49 1009.37 1009.09 1008.82 1008.79 1009.10 1009.47 1009.54 1009.81 1010.26 1010.59 1010.78 1011.01 1011.24 1011.46 1011.76
1013.77 1013.11 1012.46 1011.63 1010.57 1010.17 1009.55 1009.03 1008.70 1008.59 1007.79 1007.49 1007.18 1007.45 1007.67 1007.80 1008.04 1008.28 1009.01 1009.94 1010.19 1010.16 1009.76 1009.40 1009.19 1009.09 1009.07 1009.03 1009.05 1008.96 1008.70 1008.78 1008.93 1009.28 1009.47 1009.56 1009.91 1010.33 1010.65 1010.77 1011.02 1011.23 1011.49
1014.91 1013.85 1013.10 1012.49 1011.41 1010.61 1009.71 1008.74 1008.04 1007.61 1007.46 1007.13 1006.54 1006.59 1006.55 1006.76 1007.16 1008.06 1008.69 1008.62 1008.82 1008.65 1008.47 1008.44 1008.32 1008.21 1008.33 1008.38 1008.34 1008.54 1008.39 1008.37 1008.67 1008.84 1009.07 1009.29 1009.55 1009.78 1010.30 1010.47 1010.48 1010.76 1011.21
1015.45 1014.48 1013.69 1012.86 1011.88 1011.11 1010.44 1009.64 1008.92 1007.91 1006.85 1006.23 1006.06 1005.99 1005.67 1006.35 1006.97 1007.02 1007.24 1007.21 1007.25 1007.33 1007.26 1007.12 1007.13 1007.22 1007.26 1007.51 1007.72 1007.83 1008.00 1008.10 1008.17 1008.40 1008.60 1008.73 1009.07 1009.36 1009.71 1010.00 1010.14 1010.57 1010.78
1015.96 1015.11 1014.46 1013.71 1012.89 1012.05 1011.27 1010.54 1009.80 1008.69 1007.97 1006.82 1005.48 1004.78 1004.70 1004.84 1004.41 1004.52 1004.82 1005.19 1005.23 1005.40 1005.70 1005.79 1005.82 1005.99 1006.15 1006.32 1006.61 1007.03 1007.21 1007.35 1007.63 1007.89 1008.17 1008.38 1008.62 1008.95 1009.10 1009.34 1009.44 1009.78 1010.17
1016.45 1015.77 1015.15 1014.49 1013.69 1012.84 1012.07 1011.21 1010.33 1009.33 1008.52 1007.49 1006.34 1005.58 1005.00 1003.63 1002.93 1002.80 1002.77 1002.79 1002.82 1003.09 1003.54 1003.96 1004.17 1004.36 1004.62 1004.94 1005.33 1005.75 1006.03 1006.24 1006.49 1006.95 1007.43 1007.58 1007.85 1008.18 1008.41 1008.76 1009.12 1009.44 1009.76
1016.60 1016.04 1015.44 1014.82 1014.19 1013.42 1012.59 1011.72 1010.69 1009.64 1008.66 1007.72 1006.87 1005.81 1004.57 1003.59 1003.14 1001.78 1001.14 1001.00 1001.08 1001.13 1001.69 1002.32 1002.62 1002.87 1003.18 1003.45 1003.73 1004.17 1004.64 1005.07 1005.24 1005.61 1006.24 1006.79 1007.12 1007.44 1007.80 1007.99 1008.26 1008.82 1009.33
1016.58 1016.06 1015.50 1014.93 1014.27 1013.50 1012.66 1011.78 1010.88 1009.88 1008.70 1007.55 1006.23 1005.27 1004.63 1003.74 1002.64 1001.87 1001.11 999.62 999.41 999.56 999.60 1000.26 1000.74 1001.06 1001.50 1002.11 1002.52 1002.77 1003.16 1003.55 1003.98 1004.49 1005.00 1005.73 1006.39 1006.61 1006.95 1007.33 1007.68 1008.04 1008.38
1016.18 1015.67 1015.12 1014.50 1013.86 1013.09 1012.30 1011.33 1010.35 1009.35 1008.22 1007.08 1005.51 1004.51 1003.68 1002.85 1001.91 1000.97 1000.41 999.75 998.14 997.94 998.15 998.20 998.80 999.29 999.78 1000.43 1001.12 1001.60 1001.86 1002.41 1002.85 1003.44 1004.13 1004.69 1005.28 1005.89 1006.31 1006.69 1007.13 1007.63 1007.88
1015.62 1015.09 1014.53 1013.90 1013.17 1012.30 1011.46 1010.50 1009.57 1008.40 1007.24 1006.06 1004.90 1003.65 1002.59 1001.65 1001.00 999.85 999.00 998.63 997.59 996.43 996.48 996.80 996.85 997.36 998.10 998.74 999.47 1000.31 1000.82 1001.39 1002.11 1002.46 1003.04 1003.88 1004.48 1005.10 1005.71 1006.11 1006.42 1006.85 1007.11
Wind_Speed
6 5 4 4 5 4 5 6 5 5 7 7 7 9 10 9 7 6 7 7 7 6 5 5 7 5 4 4 4 4 6 6 7 4 4 2 3 3 3 2 4 4 4
6 4 5 5 4 5 6 5 5 7 7 7 7 8 10 10 8 7 7 6 7 5 6 6 6 5 6 6 4 7 6 7 5 8 3 3 4 3 3 3 4 3 4
5 5 5 5 5 6 6 5 6 6 7 7 6 7 9 9 8 5 5 7 5 5 6 7 8 6 7 5 6 5 5 4 5 3 3 3 4 2 2 2 2 3 3
5 6 5 5 6 6 5 5 6 6 7 7 6 7 7 8 7 2 3 6 6 6 7 8 8 8 9 7 6 6 5 4 4 4 3 3 3 3 2 2 2 1 3
7 4 6 6 4 4 5 6 7 7 7 7 6 6 6 6 4 5 5 5 6 6 7 7 9 11 14 9 4 5 5 4 3 3 3 2 3 2 4 2 3 2 3
7 6 6 4 6 6 6 7 7 7 7 6 6 6 7 4 9 10 9 6 6 5 7 7 5 4 4 3 4 6 6 5 4 4 3 4 4 4 3 4 3 3 2
7 6 6 6 6 7 6 6 7 8 5 7 7 6 7 7 10 10 12 5 6 6 6 4 2 2 3 2 3 3 4 8 8 6 5 5 3 4 3 4 3 3 2
7 7 6 7 7 7 6 8 7 5 7 6 7 7 6 7 11 10 10 6 5 6 5 4 2 1 2 4 4 4 2 3 2 3 4 5 5 4 4 4 5 5 3
8 7 7 7 7 7 7 8 7 5 5 6 5 7 6 7 10 11 9 5 3 4 4 3 2 2 5 6 3 2 3 3 3 1 1 3 7 8 5 5 4 6 4
10 9 7 8 8 8 8 7 5 4 6 5 6 5 7 7 9 9 8 4 2 3 4 2 2 1 3 7 1 3 3 1 1 2 2 3 4 5 7 2 5 5 5
9 7 7 7 9 9 6 4 6 7 5 6 6 5 6 6 6 9 7 3 1 1 0 0 1 2 3 6 2 3 1 3 3 2 2 3 4 4 3 4 4 5 3
7 7 8 8 7 6 7 7 6 6 6 6 5 6 4 5 4 5 6 6 3 2 3 2 3 5 1 3 2 4 2 1 2 1 1 1 2 3 2 4 4 4 4
7 9 8 7 7 7 6 7 5 4 5 6 4 4 5 4 4 4 6 7 4 3 3 5 7 6 3 4 5 7 1 2 1 0 1 1 1 3 4 4 5 8 9
8 10 8 7 8 7 5 5 5 5 5 5 5 5 4 4 4 3 2 3 4 2 4 4 3 5 4 3 4 3 1 2 2 1 2 2 3 3 2 2 4 3 5
9 11 8 7 8 8 7 8 6 7 7 5 6 5 5 5 6 7 6 3 1 1 5 2 1 1 3 2 2 2 1 1 1 2 2 3 4 3 2 3 2 2 4
11 9 7 7 7 7 7 8 12 14 12 14 13 9 6 9 6 9 8 8 6 2 2 2 2 2 3 2 3 4 2 4 2 3 3 4 4 3 3 2 2 2 4
13 11 5 4 5 6 7 8 9 7 14 14 15 15 14 11 14 11 10 8 7 4 3 4 4 4 4 4 4 3 3 4 4 4 3 4 5 3 4 3 2 3 2
14 16 12 11 7 8 9 10 9 9 9 7 10 12 17 17 15 15 12 7 3 5 4 4 5 5 4 4 3 3 2 2 4 4 3 4 5 4 3 3 3 3 3
12 10 11 9 9 13 10 11 10 10 10 10 5 4 13 16 14 8 12 5 7 8 7 7 6 5 5 5 4 4 4 4 3 4 4 5 4 4 4 4 4 5 5
11 17 12 11 11 11 10 10 12 13 12 10 9 10 4 6 6 9 10 9 8 9 8 9 8 8 7 6 5 5 4 4 4 4 4 5 5 4 4 5 5 5 5
9 10 16 11 11 11 11 12 13 11 11 14 12 10 11 10 11 10 12 12 12 11 11 10 9 9 8 8 6 5 6 6 5 5 4 5 5 5 6 5 5 5 4
8 9 10 11 11 12 12 12 11 11 13 15 13 14 19 9 12 10 11 13 14 14 12 12 11 11 10 10 9 8 8 7 6 6 5 5 5 5 5 6 6 4 4
8 10 10 10 11 15 12 12 13 13 13 12 13 14 13 11 12 12 12 12 12 13 12 12 11 10 10 10 10 10 9 8 8 7 7 5 5 5 5 5 5 4 5
7 8 9 9 10 12 12 13 14 18 18 15 15 10 12 15 14 13 15 13 12 13 13 13 13 15 12 11 10 10 9 8 7 9 11 8 6 6 5 4 5 6 5
8 8 8 8 10 11 13 14 16 17 17 17 15 13 14 13 15 15 13 16 14 13 15 15 13 17 19 18 16 15 12 12 11 9 8 9 10 9 6 5 5 4 4
8 10 9 9 10 12 12 13 15 16 16 17 17 17 16 14 14 17 15 14 17 14 17 14 17 22 21 17 18 16 14 14 12 12 9 9 10 8 6 6 8 5 6
Wind_Direction
165 180 182 232 254 277 275 281 301 304 308 312 311 312 305 295 283 275 273 268 266 268 270 255 252 230 238 229 210 208 222 211 238 275 235 263 273 267 292 239 235 230 248
189 191 222 244 262 270 270 289 310 313 308 303 302 301 297 292 284 281 289 284 281 278 267 260 261 261 245 232 213 219 216 205 200 244 230 245 237 246 239 239 242 232 228
199 215 252 271 284 284 269 298 309 304 299 299 299 296 297 290 283 298 286 304 295 295 278 271 262 250 258 239 221 223 215 203 204 207 252 237 258 272 295 262 255 255 237
222 233 258 274 273 247 263 287 292 294 289 293 304 290 290 288 281 232 294 301 301 289 283 275 270 254 245 235 223 222 207 199 185 207 237 248 235 246 218 229 280 263 273
240 257 268 267 245 239 265 275 282 282 282 291 296 306 298 301 294 323 303 282 284 292 286 281 271 253 246 227 210 228 195 193 186 203 231 234 232 195 198 207 218 232 242
250 262 270 250 215 241 260 265 273 281 293 294 313 304 297 283 295 298 312 302 297 284 295 301 315 57 85 114 195 184 179 174 186 177 207 220 238 224 196 195 175 162 209
247 254 259 205 221 247 257 264 268 276 286 291 295 300 298 293 287 295 304 291 284 279 273 288 303 55 73 46 7 300 241 225 196 180 209 219 240 214 184 173 179 173 182
251 251 240 201 226 250 256 256 263 263 271 282 284 287 293 291 290 298 310 290 281 280 271 277 209 66 4 343 311 287 311 330 223 197 228 245 250 274 224 190 162 123 128
251 242 233 208 223 236 249 258 261 250 275 271 266 291 299 296 296 313 336 297 339 18 60 92 127 194 316 328 290 63 28 20 66 132 277 286 267 252 193 135 138 142 128
245 242 229 215 216 229 237 256 260 234 261 282 285 277 297 298 303 321 336 298 69 56 37 21 209 188 0 0 184 146 129 355 108 77 70 22 32 81 106 90 138 139 124
242 242 237 229 220 223 241 234 254 270 279 286 283 282 291 282 308 346 338 290 6 28 76 76 251 264 1 29 23 170 153 174 110 81 44 40 56 57 66 83 89 137 118
231 242 247 235 222 225 221 256 253 252 276 282 290 301 286 282 310 338 337 304 289 223 240 246 235 231 340 2 328 327 336 137 101 34 303 6 87 93 79 93 101 108 98
228 245 241 239 231 220 222 241 260 233 252 273 256 275 284 288 279 299 315 330 334 229 263 244 259 245 322 332 347 333 26 139 232 359 29 35 117 126 128 79 63 90 101
238 246 240 226 237 228 221 226 234 243 247 252 247 249 260 274 266 252 290 332 358 44 351 334 268 260 264 271 323 349 353 176 181 141 115 98 83 58 70 74 94 87 99
262 263 248 222 228 238 230 226 218 229 200 223 232 211 219 252 241 213 188 214 183 13 318 230 297 301 307 315 297 268 180 146 150 142 133 105 102 99 67 100 95 85 111
299 282 271 272 250 226 232 259 230 232 228 225 233 192 220 239 208 190 212 195 202 204 195 238 212 224 241 263 272 267 192 175 181 169 145 132 137 142 118 96 91 102 122
0 337 317 303 287 270 279 265 256 252 235 233 229 225 211 203 221 212 194 206 207 193 213 215 221 217 239 255 256 249 206 170 159 183 166 155 143 145 146 160 146 141 123
359 352 349 336 332 305 287 273 256 259 250 246 225 207 221 223 214 209 167 158 211 211 234 224 215 214 226 226 227 244 233 176 172 170 182 174 163 148 166 175 162 152 135
345 343 344 330 336 334 321 301 278 265 255 259 256 201 223 219 214 169 167 191 216 226 214 222 227 212 211 228 223 201 229 230 164 173 188 170 176 169 165 182 210 193 157
336 335 339 337 338 336 334 336 338 316 278 257 247 248 199 116 183 199 203 207 209 226 227 219 219 219 212 206 216 209 203 199 242 184 189 196 179 181 183 188 190 168 199
338 340 345 341 339 337 333 335 324 323 317 318 280 253 222 212 216 202 202 208 213 214 220 221 219 215 212 208 208 202 206 195 194 213 200 188 174 184 190 197 202 195 166
335 349 348 343 338 333 327 318 315 314 317 316 311 312 315 241 235 220 214 210 209 211 211 213 214 211 209 203 198 197 196 209 204 182 195 215 186 185 168 183 177 183 174
329 339 336 338 337 333 328 324 316 308 303 296 295 304 306 304 302 260 228 220 214 205 207 208 210 211 210 206 197 194 192 198 203 187 181 193 195 181 177 171 167 155 165
308 325 326 321 326 329 327 325 319 316 306 303 292 286 289 292 292 293 287 245 221 216 203 203 205 203 202 204 204 200 195 195 186 190 178 179 196 185 160 158 172 187 167
306 305 307 309 314 319 322 323 323 314 307 298 285 293 285 284 284 280 277 277 238 220 216 202 200 202 199 197 201 201 196 188 186 183 178 174 181 181 187 173 164 172 157
303 307 300 300 307 313 313 311 311 309 300 296 286 279 274 272 281 269 269 271 267 227 221 213 205 197 195 196 197 195 191 191 187 180 170 177 177 177 174 185 187 174 169